Weather History for KAWG - January, 2014

Change the Weather History Date:

Thursday, January 23, 2014

  Actual Average Record
Temperature  
Mean Temperature 0 °F -  
Max Temperature 5 °F 28 °F 48 °F (2002)
Min Temperature -5 °F 14 °F -5 °F (2003)
Degree Days  
Heating Degree Days 65    
Moisture  
Dew Point -9 °F    
Average Humidity 71    
Maximum Humidity 85    
Minimum Humidity 61    
Precipitation  
Precipitation 0.00 in - - ()
Sea Level Pressure  
Sea Level Pressure 30.63 in    
Wind  
Wind Speed 16 mph (WNW)    
Max Wind Speed 22 mph    
Max Gust Speed 29 mph    
Visibility 10 miles    
Events      
Averages and records for this station are not official NWS values.
T = Trace of Precipitation, MM = Missing Value Source: NWS Daily Summary

Daily Weather History Graph

Daily Weather History Graph

Search for Another Location

Airport or City:

Trip Planner

Search our weather history database for the weather conditions in past years. The results will help you decide how hot, cold, wet, or windy it might be!

Date:

Astronomy

Jan. 23, 2014 Rise Set
Actual Time 7:25 AM CST 5:12 PM CST
Civil Twilight 6:55 AM CST 5:41 PM CST
Nautical Twilight 6:22 AM CST 6:15 PM CST
Astronomical Twilight 5:49 AM CST 6:48 PM CST
Moon No Moon Rise 10:56 AM CST (1/23)
Length of Visible Light 10h 46m
Length of Day
9h 46m
Waning Gibbous, 55% of the Moon is Illuminated
Jan 23
Waning Gibbous
Jan 23
Last Quarter
Jan 30
New
Feb 6
First Quarter
Feb 14
Full

Hourly Weather History & Observations

Time (CST) Temp. Windchill Dew Point Humidity Pressure Visibility Wind Dir Wind Speed Gust Speed Precip Events Conditions
12:15 AM -2.2 °F -24.7 °F -7.6 °F 78% 30.43 in 10.0 mi NW 19.6 mph 26.5 mph N/A   Overcast
12:35 AM -2.2 °F -25.2 °F -9.4 °F 71% 30.44 in 10.0 mi NW 20.7 mph - N/A   Scattered Clouds
12:55 AM -2.2 °F -25.7 °F -9.4 °F 71% 30.44 in 10.0 mi NW 21.9 mph - N/A   Clear
1:15 AM -4.0 °F -26.4 °F -9.4 °F 78% 30.45 in 10.0 mi NW 18.4 mph 25.3 mph N/A   Clear
1:35 AM -4.0 °F -27.6 °F -11.2 °F 71% 30.46 in 10.0 mi NW 20.7 mph 26.5 mph N/A   Scattered Clouds
1:55 AM -4.0 °F -26.4 °F -11.2 °F 71% 30.47 in 10.0 mi NW 18.4 mph 25.3 mph N/A   Scattered Clouds
2:15 AM -4.0 °F -25.8 °F -11.2 °F 71% 30.49 in 10.0 mi NW 17.3 mph - N/A   Partly Cloudy
2:35 AM -4.0 °F -25.2 °F -11.2 °F 71% 30.50 in 10.0 mi WNW 16.1 mph 23.0 mph N/A   Clear
2:55 AM -4.0 °F -26.4 °F -11.2 °F 71% 30.51 in 10.0 mi WNW 18.4 mph - N/A   Partly Cloudy
3:15 AM -4.0 °F -27.0 °F -11.2 °F 71% 30.51 in 10.0 mi NW 19.6 mph - N/A   Partly Cloudy
3:35 AM -4.0 °F -27.0 °F -11.2 °F 71% 30.51 in 10.0 mi NW 19.6 mph 28.8 mph N/A   Mostly Cloudy
3:55 AM -4.0 °F -27.6 °F -11.2 °F 71% 30.52 in 10.0 mi NW 20.7 mph - N/A   Overcast
4:15 AM -5.8 °F -28.2 °F -13.0 °F 71% 30.53 in 10.0 mi WNW 17.3 mph - N/A   Mostly Cloudy
4:35 AM -5.8 °F -28.2 °F -13.0 °F 71% 30.55 in 10.0 mi NW 17.3 mph 23.0 mph N/A   Mostly Cloudy
4:55 AM -5.8 °F -28.2 °F -13.0 °F 71% 30.56 in 10.0 mi WNW 17.3 mph - N/A   Mostly Cloudy
5:15 AM -5.8 °F -27.5 °F -13.0 °F 71% 30.57 in 10.0 mi WNW 16.1 mph - N/A   Mostly Cloudy
5:35 AM -5.8 °F -27.5 °F -13.0 °F 71% 30.58 in 10.0 mi NW 16.1 mph 23.0 mph N/A   Partly Cloudy
5:55 AM -5.8 °F -27.5 °F -13.0 °F 71% 30.59 in 10.0 mi WNW 16.1 mph 23.0 mph N/A   Clear
6:15 AM -5.8 °F -28.8 °F -13.0 °F 71% 30.60 in 10.0 mi NW 18.4 mph - N/A   Clear
6:35 AM -5.8 °F -26.8 °F -13.0 °F 71% 30.62 in 10.0 mi NW 15.0 mph 23.0 mph N/A   Mostly Cloudy
6:55 AM -5.8 °F -27.5 °F -13.0 °F 71% 30.63 in 10.0 mi NW 16.1 mph 21.9 mph N/A   Overcast
7:15 AM -5.8 °F -26.8 °F -13.0 °F 71% 30.64 in 10.0 mi NW 15.0 mph 21.9 mph N/A   Mostly Cloudy
7:35 AM -5.8 °F -28.2 °F -13.0 °F 71% 30.64 in 10.0 mi NW 17.3 mph - N/A   Mostly Cloudy
7:55 AM -5.8 °F -28.2 °F -13.0 °F 71% 30.65 in 10.0 mi NW 17.3 mph - N/A   Mostly Cloudy
8:15 AM -5.8 °F -28.8 °F -13.0 °F 71% 30.66 in 10.0 mi NW 18.4 mph - N/A   Overcast
8:35 AM -5.8 °F -29.4 °F -13.0 °F 71% 30.67 in 10.0 mi NW 19.6 mph 25.3 mph N/A   Mostly Cloudy
8:55 AM -5.8 °F -28.2 °F -13.0 °F 71% 30.68 in 10.0 mi NW 17.3 mph - N/A   Scattered Clouds
9:15 AM -5.8 °F -29.9 °F -13.0 °F 71% 30.68 in 10.0 mi NNW 20.7 mph 28.8 mph N/A   Mostly Cloudy
9:35 AM -4.0 °F -27.0 °F -13.0 °F 65% 30.69 in 10.0 mi NW 19.6 mph - N/A   Overcast
9:55 AM -4.0 °F -27.0 °F -11.2 °F 71% 30.70 in 10.0 mi NW 19.6 mph - N/A   Mostly Cloudy
10:15 AM -4.0 °F -25.2 °F -11.2 °F 71% 30.70 in 10.0 mi NW 16.1 mph 24.2 mph N/A   Partly Cloudy
10:35 AM -2.2 °F -23.5 °F -11.2 °F 66% 30.71 in 10.0 mi WNW 17.3 mph - N/A   Partly Cloudy
10:55 AM -2.2 °F -22.9 °F -9.4 °F 71% 30.72 in 10.0 mi NW 16.1 mph - N/A   Partly Cloudy
11:15 AM -2.2 °F -22.9 °F -9.4 °F 71% 30.72 in 10.0 mi WNW 16.1 mph - N/A   Partly Cloudy
11:35 AM -0.4 °F -20.5 °F -9.4 °F 66% 30.72 in 10.0 mi NW 16.1 mph 21.9 mph N/A   Partly Cloudy
11:55 AM -0.4 °F -19.9 °F -9.4 °F 66% 30.71 in 10.0 mi NW 15.0 mph 24.2 mph N/A   Clear
12:15 PM -0.4 °F -22.3 °F -9.4 °F 66% 30.71 in 10.0 mi NW 19.6 mph - N/A   Partly Cloudy
12:35 PM 1.4 °F -17.6 °F -7.6 °F 66% 30.71 in 10.0 mi NW 15.0 mph 24.2 mph N/A   Clear
12:55 PM 3.2 °F -17.1 °F -5.8 °F 66% 30.70 in 10.0 mi NW 18.4 mph - N/A   Clear
1:15 PM 1.4 °F -19.9 °F -7.6 °F 66% 30.70 in 10.0 mi WNW 19.6 mph - N/A   Clear
1:35 PM 3.2 °F -14.6 °F -7.6 °F 61% 30.70 in 10.0 mi NW 13.8 mph 21.9 mph N/A   Clear
1:55 PM 5.0 °F -13.0 °F -5.8 °F 61% 30.69 in 10.0 mi NW 15.0 mph - N/A   Clear
2:15 PM 5.0 °F -13.6 °F -5.8 °F 61% 30.69 in 10.0 mi NW 16.1 mph 24.2 mph N/A   Clear
2:35 PM 5.0 °F -14.2 °F -5.8 °F 61% 30.69 in 10.0 mi NW 17.3 mph - N/A   Clear
2:55 PM 5.0 °F -13.6 °F -5.8 °F 61% 30.69 in 10.0 mi NW 16.1 mph - N/A   Clear
3:15 PM 5.0 °F -13.6 °F -5.8 °F 61% 30.70 in 10.0 mi NW 16.1 mph - N/A   Clear
3:35 PM 5.0 °F -13.6 °F -4.0 °F 66% 30.70 in 10.0 mi WNW 16.1 mph - N/A   Clear
3:55 PM 5.0 °F -13.0 °F -4.0 °F 66% 30.70 in 10.0 mi WNW 15.0 mph - N/A   Clear
4:15 PM 5.0 °F -13.0 °F -5.8 °F 61% 30.70 in 10.0 mi WNW 15.0 mph 20.7 mph N/A   Clear
4:35 PM 5.0 °F -13.0 °F -5.8 °F 61% 30.70 in 10.0 mi NW 15.0 mph - N/A   Clear
4:55 PM 3.2 °F -13.1 °F -5.8 °F 66% 30.70 in 10.0 mi WNW 11.5 mph - N/A   Clear
5:15 PM 3.2 °F -11.3 °F -5.8 °F 66% 30.70 in 10.0 mi WNW 9.2 mph - N/A   Clear
5:35 PM 1.4 °F -12.5 °F -5.8 °F 72% 30.69 in 10.0 mi WNW 8.1 mph - N/A   Clear
5:55 PM 1.4 °F -12.5 °F -5.8 °F 72% 30.69 in 10.0 mi WNW 8.1 mph - N/A   Clear
6:15 PM 1.4 °F -9.9 °F -5.8 °F 72% 30.70 in 10.0 mi WNW 5.8 mph - N/A   Clear
6:35 PM 1.4 °F -9.9 °F -5.8 °F 72% 30.70 in 10.0 mi WNW 5.8 mph - N/A   Clear
6:55 PM -0.4 °F -10.4 °F -5.8 °F 78% 30.69 in 10.0 mi West 4.6 mph - N/A   Clear
7:15 PM -0.4 °F -12.0 °F -7.6 °F 72% 30.69 in 10.0 mi West 5.8 mph - N/A   Clear
7:35 PM -2.2 °F -12.5 °F -7.6 °F 78% 30.68 in 10.0 mi WSW 4.6 mph - N/A   Clear
7:55 PM -2.2 °F -12.5 °F -7.6 °F 78% 30.68 in 10.0 mi WSW 4.6 mph - N/A   Clear
8:35 PM -4.0 °F -14.6 °F -9.4 °F 78% 30.66 in 10.0 mi SW 4.6 mph - N/A   Clear
8:55 PM -2.2 °F -14.2 °F -7.6 °F 78% 30.65 in 10.0 mi SW 5.8 mph - N/A   Clear
9:15 PM -4.0 °F -17.8 °F -7.6 °F 85% 30.63 in 10.0 mi SW 6.9 mph - N/A   Clear
9:55 PM -4.0 °F -17.8 °F -7.6 °F 85% 30.62 in 10.0 mi SW 6.9 mph - N/A   Clear
10:15 PM -4.0 °F -16.3 °F -7.6 °F 85% 30.61 in 10.0 mi SW 5.8 mph - N/A   Clear
10:35 PM -5.8 °F -21.2 °F -9.4 °F 84% 30.61 in 10.0 mi SW 8.1 mph - N/A   Clear
10:55 PM -2.2 °F -16.8 °F -7.6 °F 78% 30.60 in 10.0 mi SW 8.1 mph - N/A   Clear
11:15 PM -2.2 °F -18.0 °F -7.6 °F 78% 30.58 in 10.0 mi SSW 9.2 mph - N/A   Clear
11:35 PM -2.2 °F -18.0 °F -7.6 °F 78% 30.57 in 10.0 mi SSW 9.2 mph - N/A   Clear
11:55 PM -2.2 °F -18.9 °F -7.6 °F 78% 30.56 in 10.0 mi SSW 10.4 mph - N/A   Clear